Shepherd Bay, Nunavut

3:38 PM CDT on July 25, 2017 (GMT -0500)
Shepherd Bay

Weather History for CYUS - February, 2013

Change the Weather History Date:

Wednesday, February 27, 2013

  Actual Average Record
Temperature  
Mean Temperature -40 °F -  
Max Temperature -36 °F - - ()
Min Temperature -45 °F -36 °F - ()
Degree Days  
Heating Degree Days 106    
Moisture  
Dew Point -    
Average Humidity    
Maximum Humidity    
Minimum Humidity    
Precipitation  
Precipitation 0.00 in 0.01 in - ()
Sea Level Pressure  
Sea Level Pressure 30.52 in    
Wind  
Wind Speed 9 mph ()    
Max Wind Speed 15 mph    
Max Gust Speed -    
Visibility 0.6 miles    
Events      
T = Trace of Precipitation, MM = Missing Value Source: Averaged Metar Reports

Daily Weather History Graph

Daily Weather History Graph

Search for Another Location

Airport or City:

Trip Planner

Search our weather history database for the weather conditions in past years. The results will help you decide how hot, cold, wet, or windy it might be!

Date:

Astronomy

Feb. 27, 2013 Rise Set
Actual Time 7:43 AM CST 5:11 PM CST
Civil Twilight 6:44 AM CST 6:10 PM CST
Nautical Twilight 5:37 AM CST 7:17 PM CST
Astronomical Twilight 4:28 AM CST 8:27 PM CST
Moon 9:13 PM CST (2/27) 6:58 AM CST (2/27)
Length of Visible Light 11h 26m
Length of Day
9h 28m
Waning Gibbous, 96% of the Moon is Illuminated
Feb 27
Waning Gibbous
Mar 4
Last Quarter
Mar 11
New
Mar 19
First Quarter
Mar 27
Full

Hourly Weather History & Observations

Time (CST) Temp. Windchill Dew Point Humidity Pressure Visibility Wind Dir Wind Speed Gust Speed Precip Events Conditions
12:00 AM -42 °F - - % 30.46 in 0 mi WSW 9.2 mph - -  
12:00 AM -41.8 °F -65.1 °F - N/A% 30.46 in 0.4 mi WSW 8.1 mph - N/A   Unknown
12:05 AM -41.8 °F -63.3 °F - N/A% 30.42 in 0.4 mi WSW 6.9 mph - N/A   Unknown
12:09 AM -41.8 °F -65.1 °F - N/A% 30.42 in 0.4 mi WSW 8.1 mph - N/A   Unknown
12:13 AM -41.8 °F -69.5 °F - N/A% 30.42 in 0.6 mi WSW 11.5 mph - N/A   Unknown
12:17 AM -41.8 °F -71.8 °F - N/A% 30.42 in 1.0 mi WSW 13.8 mph - N/A   Unknown
12:28 AM -41.8 °F -66.7 °F - N/A% 30.42 in 2.0 mi WSW 9.2 mph - N/A   Unknown
12:36 AM -41.8 °F -63.3 °F - N/A% 30.43 in 1.1 mi SW 6.9 mph - N/A   Unknown
12:37 AM -41.8 °F -65.1 °F - N/A% 30.43 in 1.0 mi SW 8.1 mph - N/A   Unknown
12:38 AM -41.8 °F -66.7 °F - N/A% 30.44 in 0.6 mi WSW 9.2 mph - N/A   Unknown
12:42 AM -41.8 °F -65.1 °F - N/A% 30.43 in 0.4 mi WSW 8.1 mph - N/A   Unknown
12:51 AM -43.6 °F -68.9 °F - N/A% 30.44 in 0.4 mi WSW 9.2 mph - N/A   Unknown
1:00 AM -43.6 °F -68.9 °F - N/A% 30.48 in 0.2 mi SW 9.2 mph - N/A   Unknown
1:23 AM -43.6 °F -68.9 °F - N/A% 30.44 in 1.0 mi WSW 9.2 mph - N/A   Unknown
1:27 AM -43.6 °F -67.3 °F - N/A% 30.44 in 1.5 mi WSW 8.1 mph - N/A   Unknown
1:42 AM -43.6 °F -67.3 °F - N/A% 30.44 in 4.0 mi WSW 8.1 mph - N/A   Unknown
1:46 AM -43.6 °F -67.3 °F - N/A% 30.44 in 2.5 mi WSW 8.1 mph - N/A   Unknown
1:49 AM -43.6 °F -68.9 °F - N/A% 30.44 in 1.2 mi WSW 9.2 mph - N/A   Unknown
1:53 AM -43.6 °F -68.9 °F - N/A% 30.44 in 1.0 mi WSW 9.2 mph - N/A   Unknown
1:55 AM -43.6 °F -68.9 °F - N/A% 30.44 in 0.6 mi WSW 9.2 mph - N/A   Unknown
1:59 AM -43.6 °F -65.4 °F - N/A% 30.44 in 0.4 mi SW 6.9 mph - N/A   Unknown
2:00 AM -43.6 °F -65.4 °F - N/A% 30.48 in 0.4 mi SW 6.9 mph - N/A   Unknown
3:00 AM -45 °F - - % 30.49 in 0 mi WSW 8.1 mph - -  
3:26 AM -43.6 °F -70.4 °F - N/A% 30.47 in 0.2 mi SW 10.4 mph - N/A   Unknown
3:35 AM -43.6 °F -70.4 °F - N/A% 30.46 in 0.2 mi SW 10.4 mph - N/A   Unknown
3:42 AM -43.6 °F -71.7 °F - N/A% 30.47 in 0.2 mi SW 11.5 mph - N/A   Unknown
3:49 AM -43.6 °F -71.7 °F - N/A% 30.47 in 0.2 mi SW 11.5 mph - N/A   Unknown
4:00 AM -43.6 °F -71.7 °F - N/A% 30.51 in 0.2 mi SW 11.5 mph - N/A   Unknown
4:21 AM -43.6 °F -70.4 °F - N/A% 30.47 in 0.2 mi SW 10.4 mph - N/A   Unknown
4:31 AM -45.4 °F -72.6 °F - N/A% 30.47 in 0.2 mi SW 10.4 mph - N/A   Unknown
4:35 AM -45.4 °F -72.6 °F - N/A% 30.47 in 0.2 mi SW 10.4 mph - N/A   Unknown
4:42 AM -43.6 °F -73.0 °F - N/A% 30.47 in 0.2 mi SW 12.7 mph - N/A   Unknown
4:46 AM -43.6 °F -71.7 °F - N/A% 30.47 in 0.2 mi SW 11.5 mph - N/A   Unknown
5:00 AM -43.6 °F -74.1 °F - N/A% 30.51 in 0.2 mi SW 13.8 mph - N/A   Unknown
5:39 AM -43.6 °F -73.0 °F - N/A% 30.48 in 0.2 mi WSW 12.7 mph - N/A   Unknown
6:00 AM -44 °F - - % 30.53 in 0 mi SW 12.7 mph - -  
6:59 AM -43.6 °F -65.4 °F - N/A% 30.49 in 0.6 mi WSW 6.9 mph - N/A   Unknown
7:00 AM -43.6 °F -65.4 °F - N/A% 30.52 in 0.6 mi WSW 6.9 mph - N/A   Unknown
7:38 AM -43.6 °F -71.7 °F - N/A% 30.50 in 0.4 mi WSW 11.5 mph - N/A   Unknown
8:00 AM -43.6 °F -71.7 °F - N/A% 30.54 in 0.2 mi SW 11.5 mph - N/A   Unknown
8:16 AM -41.8 °F -71.8 °F - N/A% 30.51 in 0.5 mi SW 13.8 mph - N/A   Unknown
8:33 AM -43.6 °F -70.4 °F - N/A% 30.50 in 0.4 mi WSW 10.4 mph - N/A   Unknown
8:37 AM -43.6 °F -70.4 °F - N/A% 30.50 in 0.4 mi WSW 10.4 mph - N/A   Unknown
9:00 AM -43 °F - - % 30.54 in 0 mi SW 10.4 mph - -  
9:00 AM -41.8 °F -69.5 °F - N/A% 30.54 in 0.2 mi SW 11.5 mph - N/A   Unknown
10:00 AM -41.8 °F -68.2 °F - N/A% 30.54 in 0.2 mi SW 10.4 mph - N/A   Unknown
10:29 AM -41.8 °F -66.7 °F - N/A% 30.50 in 0.8 mi West 9.2 mph - N/A   Unknown
10:32 AM -41.8 °F -66.7 °F - N/A% 30.49 in 1.5 mi West 9.2 mph - N/A   Unknown
10:53 AM -40.0 °F -59.0 °F - N/A% 30.51 in 1.4 mi SW 5.8 mph - N/A   Unknown
10:56 AM -40.0 °F -62.9 °F - N/A% 30.51 in 1.0 mi SW 8.1 mph - N/A   Unknown
10:58 AM -40.0 °F -64.5 °F - N/A% 30.51 in 0.6 mi SW 9.2 mph - N/A   Unknown
11:00 AM -40.0 °F -64.5 °F - N/A% 30.55 in 0.6 mi WSW 9.2 mph - N/A   Unknown
11:46 AM -38.2 °F -60.7 °F - N/A% 30.52 in 1.0 mi WSW 8.1 mph - N/A   Unknown
11:59 AM -38.2 °F -54.5 °F - N/A% 30.52 in 1.0 mi SW 4.6 mph - N/A   Unknown
12:00 PM -38 °F - - % 30.56 in 1 mi WSW 5.8 mph - -  
12:14 PM -38.2 °F -60.7 °F - N/A% 30.52 in 0.6 mi SW 8.1 mph - N/A   Unknown
12:54 PM -36.4 °F -58.5 °F - N/A% 30.53 in 1.0 mi SW 8.1 mph - N/A   Unknown
1:00 PM -36.4 °F -54.8 °F - N/A% 30.56 in 1.0 mi WSW 5.8 mph - N/A   Unknown
1:04 PM -36.4 °F -56.8 °F - N/A% 30.53 in 1.0 mi WSW 6.9 mph - N/A   Unknown
1:27 PM -36.4 °F -56.8 °F - N/A% 30.53 in 0.6 mi SW 6.9 mph - N/A   Unknown
1:34 PM -36.4 °F -56.8 °F - N/A% 30.54 in 0.6 mi WSW 6.9 mph - N/A   Unknown
1:39 PM -36.4 °F -54.8 °F - N/A% 30.54 in 1.0 mi WSW 5.8 mph - N/A   Unknown
1:54 PM -36.4 °F -54.8 °F - N/A% 30.55 in 1.1 mi WSW 5.8 mph - N/A   Unknown
2:00 PM -36.4 °F -56.8 °F - N/A% 30.58 in 1.1 mi WSW 6.9 mph - N/A   Unknown
2:41 PM -36.4 °F -58.5 °F - N/A% 30.56 in 1.0 mi SW 8.1 mph - N/A   Unknown
2:59 PM -36.4 °F -56.8 °F - N/A% 30.56 in 1.1 mi WSW 6.9 mph - N/A   Unknown
3:00 PM -37 °F - - % 30.60 in 1 mi WSW 6.9 mph - -  
3:00 PM -36.4 °F -56.8 °F - N/A% 30.60 in 1.1 mi WSW 6.9 mph - N/A   Unknown
3:37 PM -36.4 °F -56.8 °F - N/A% 30.57 in 1.0 mi WSW 6.9 mph - N/A   Unknown
3:48 PM -36.4 °F -56.8 °F - N/A% 30.57 in 1.5 mi WSW 6.9 mph - N/A   Unknown
3:58 PM -36.4 °F -56.8 °F - N/A% 30.57 in 1.4 mi WSW 6.9 mph - N/A   Unknown
4:00 PM -36.4 °F -56.8 °F - N/A% 30.61 in 1.1 mi WSW 6.9 mph - N/A   Unknown
4:11 PM -36.4 °F -56.8 °F - N/A% 30.57 in 1.1 mi WSW 6.9 mph - N/A   Unknown
4:14 PM -38.2 °F -58.9 °F - N/A% 30.57 in 1.1 mi WSW 6.9 mph - N/A   Unknown
4:27 PM -38.2 °F -58.9 °F - N/A% 30.58 in 1.1 mi SW 6.9 mph - N/A   Unknown
4:29 PM -38.2 °F -58.9 °F - N/A% 30.58 in 1.0 mi WSW 6.9 mph - N/A   Unknown
4:39 PM -38.2 °F -58.9 °F - N/A% 30.58 in 0.6 mi SW 6.9 mph - N/A   Unknown
5:07 PM -38.2 °F -62.3 °F - N/A% 30.58 in 1.0 mi WSW 9.2 mph - N/A   Unknown
5:10 PM -38.2 °F -58.9 °F - N/A% 30.58 in 0.6 mi WSW 6.9 mph - N/A   Unknown
5:16 PM -40.0 °F -62.9 °F - N/A% 30.58 in 0.4 mi WSW 8.1 mph - N/A   Unknown
6:00 PM -41 °F - - % 30.62 in 0 mi WSW 9.2 mph - -  
6:00 PM -40.0 °F -62.9 °F - N/A% 30.62 in 0.5 mi WSW 8.1 mph - N/A   Unknown
6:07 PM -41.8 °F -66.7 °F - N/A% 30.58 in 0.1 mi WSW 9.2 mph - N/A   Unknown
6:45 PM -40.0 °F -67.2 °F - N/A% 30.59 in 0.2 mi SW 11.5 mph - N/A   Unknown
7:00 PM -40.0 °F -64.5 °F - N/A% 30.63 in 0.2 mi SW 9.2 mph - N/A   Unknown
7:09 PM -41.8 °F -65.1 °F - N/A% 30.59 in 0.1 mi WSW 8.1 mph - N/A   Unknown
7:25 PM -40.0 °F -64.5 °F - N/A% 30.59 in 0.5 mi WSW 9.2 mph - N/A   Unknown
7:34 PM -40.0 °F -65.9 °F - N/A% 30.59 in 0.4 mi WSW 10.4 mph - N/A   Unknown
8:00 PM -41.8 °F -65.1 °F - N/A% 30.62 in 0.2 mi WSW 8.1 mph - N/A   Unknown
8:02 PM -41.8 °F -65.1 °F - N/A% 30.59 in 0.1 mi WSW 8.1 mph - N/A   Unknown
8:38 PM -40.0 °F -62.9 °F - N/A% 30.59 in 0.4 mi WSW 8.1 mph - N/A   Unknown
9:00 PM -42 °F - - % 30.62 in 0 mi SW 9.2 mph - -  
9:00 PM -41.8 °F -66.7 °F - N/A% 30.62 in 0.2 mi SW 9.2 mph - N/A   Unknown
9:55 PM -45.4 °F -72.6 °F - N/A% 30.58 in 0.1 mi SSW 10.4 mph - N/A   Unknown
10:00 PM -45.4 °F -72.6 °F - N/A% 30.61 in 0.1 mi SSW 10.4 mph - N/A   Unknown
10:32 PM -43.6 °F -73.0 °F - N/A% 30.58 in 0.1 mi SW 12.7 mph - N/A   Unknown
10:37 PM -43.6 °F -73.0 °F - N/A% 30.58 in 0.1 mi SW 12.7 mph - N/A   Unknown
10:38 PM -43.6 °F -73.0 °F - N/A% 30.58 in 0.2 mi SW 12.7 mph - N/A   Unknown
11:00 PM -41.8 °F -72.9 °F - N/A% 30.61 in 0.4 mi SW 15.0 mph - N/A   Unknown
11:44 PM -43.6 °F -73.0 °F - N/A% 30.57 in 0.1 mi WSW 12.7 mph - N/A   Unknown
11:47 PM -43.6 °F -73.0 °F - N/A% 30.57 in 0.1 mi WSW 12.7 mph - N/A   Unknown
11:54 PM -43.6 °F -73.0 °F - N/A% 30.57 in 0.1 mi WSW 12.7 mph - N/A   Unknown